Jonesboro, AR

12:50 PM CDT on August 19, 2017 (GMT -0500)
Jonesboro Municipal

Weather History for KJBR - August, 2013

Change the Weather History Date:

Wednesday, August 7, 2013

  Actual Average Record
Temperature  
Mean Temperature 82 °F 81 °F  
Max Temperature 88 °F 91 °F 110 °F (1934)
Min Temperature 75 °F 71 °F 52 °F (1897)
Degree Days  
Heating Degree Days 0 0  
Month to date heating degree days 0 0  
Since 1 June heating degree days 0 1  
Since 1 July heating degree days 0 0  
Cooling Degree Days 17 16  
Month to date cooling degree days 97 112  
Year to date cooling degree days 1231 1199  
Since 1 June cooling degree days 1001 986  
Growing Degree Days 32 (Base 50)    
Moisture  
Dew Point 74 °F    
Average Humidity 79    
Maximum Humidity 94    
Minimum Humidity 63    
Precipitation  
Precipitation 0.01 in 0.09 in 2.44 in (1981)
Month to date precipitation 0.82 0.58  
Year to date precipitation 34.55 29.15  
Snow  
Snow 0.00 in - - ()
Month to date snowfall 0.0  
Since 1 June snowfall 0.0  
Snow Depth 0.00 in    
Sea Level Pressure  
Sea Level Pressure 29.90 in    
Wind  
Wind Speed 4 mph (East)    
Max Wind Speed 16 mph    
Max Gust Speed 28 mph    
Visibility 9 miles    
Events Rain    
T = Trace of Precipitation, MM = Missing Value Source: NWS Daily Summary

Daily Weather History Graph

Daily Weather History Graph

Search for Another Location

Airport or City:

Trip Planner

Search our weather history database for the weather conditions in past years. The results will help you decide how hot, cold, wet, or windy it might be!

Date:

Astronomy

Aug. 07, 2013 Rise Set
Actual Time 6:15 AM CDT 8:00 PM CDT
Civil Twilight 5:47 AM CDT 8:28 PM CDT
Nautical Twilight 5:14 AM CDT 9:01 PM CDT
Astronomical Twilight 4:38 AM CDT 9:37 PM CDT
Moon 7:00 AM CDT (8/7) 8:12 PM CDT (8/7)
Length of Visible Light 14h 41m
Length of Day
13h 45m
New Moon, 1% of the Moon is Illuminated
Aug 7
New Moon
Aug 14
First Quarter
Aug 20
Full
Aug 28
Last Quarter
Sep 5
New

Hourly Weather History & Observations

Time (CDT) Temp. Heat Index Dew Point Humidity Pressure Visibility Wind Dir Wind Speed Gust Speed Precip Events Conditions
12:53 AM 77.0 °F - 75.0 °F 94% 29.89 in 7.0 mi Calm Calm - N/A   Clear
1:53 AM 78.1 °F - 75.0 °F 90% 29.87 in 8.0 mi South 4.6 mph - N/A   Clear
2:53 AM 77.0 °F - 75.0 °F 94% 29.84 in 7.0 mi South 3.5 mph - N/A   Clear
3:53 AM 77.0 °F - 75.0 °F 94% 29.84 in 7.0 mi Calm Calm - N/A   Clear
4:53 AM 75.9 °F - 73.9 °F 94% 29.84 in 6.0 mi Calm Calm - N/A   Mostly Cloudy
5:53 AM 78.1 °F - 75.0 °F 90% 29.86 in 9.0 mi SSW 4.6 mph - N/A   Clear
6:53 AM 78.1 °F - 75.9 °F 93% 29.88 in 9.0 mi Calm Calm - N/A   Clear
7:44 AM 78.8 °F - 75.2 °F 89% 29.93 in 9.0 mi North 5.8 mph - N/A   Overcast
7:53 AM 79.0 °F - 75.9 °F 90% 29.93 in 10.0 mi North 6.9 mph - N/A   Mostly Cloudy
8:19 AM 78.8 °F - 77.0 °F 94% 29.94 in 10.0 mi Calm Calm - N/A   Partly Cloudy
8:53 AM 79.0 °F - 75.9 °F 90% 29.94 in 10.0 mi NNE 5.8 mph - N/A   Partly Cloudy
9:21 AM 78.8 °F - 75.2 °F 89% 29.97 in 8.0 mi NNE 13.8 mph 19.6 mph 0.01 in Rain Light Rain
9:46 AM 75.2 °F - 69.8 °F 83% 29.98 in 10.0 mi NNE 9.2 mph 20.7 mph 0.01 in   Overcast
9:53 AM 75.9 °F - 70.0 °F 82% 29.97 in 10.0 mi North - - 0.01 in   Overcast
10:53 AM 77.0 °F - 70.0 °F 79% 29.96 in 10.0 mi North - - N/A   Clear
11:53 AM 79.0 °F - 69.1 °F 72% 29.96 in 10.0 mi North - - N/A   Clear
12:53 PM 80.1 °F 83.2 °F 70.0 °F 71% 29.94 in 10.0 mi East 3.5 mph - N/A   Clear
1:53 PM 82.0 °F 86.7 °F 72.0 °F 71% 29.90 in 10.0 mi SSE 9.2 mph - N/A   Clear
2:53 PM 84.0 °F 91.2 °F 73.9 °F 72% 29.86 in 10.0 mi South 13.8 mph - N/A   Clear
3:53 PM 84.9 °F 91.4 °F 73.0 °F 67% 29.87 in 10.0 mi South 9.2 mph - N/A   Clear
4:53 PM 84.9 °F 90.7 °F 72.0 °F 65% 29.87 in 10.0 mi South 3.5 mph - N/A   Clear
5:53 PM 88.0 °F 95.6 °F 73.0 °F 61% 29.88 in 10.0 mi North 4.6 mph - N/A   Clear
6:53 PM 84.0 °F 91.2 °F 73.9 °F 72% 29.88 in 10.0 mi Calm Calm - N/A   Overcast
7:53 PM 81.0 °F 86.7 °F 75.0 °F 82% 29.88 in 10.0 mi NE 3.5 mph - N/A   Scattered Clouds
8:53 PM 80.1 °F 85.1 °F 75.0 °F 85% 29.89 in 10.0 mi North 3.5 mph - N/A   Overcast
9:53 PM 78.1 °F - 75.0 °F 90% 29.91 in 10.0 mi Calm Calm - N/A   Scattered Clouds
10:53 PM 77.0 °F - 73.9 °F 90% 29.92 in 10.0 mi Calm Calm - 0.00 in   Clear
11:53 PM 75.9 °F - 73.9 °F 94% 29.91 in 10.0 mi Calm Calm - N/A   Mostly Cloudy